NOAA 16 DEB, 42352

Orbit data source: Space-Track

NOAA 16 DEB, 42352 is space debris in SSO originally from a launch on Thu, 21 Sep 2000 UTC launched from the Air Force Western Test Range (AFWTR). Debris objects in space refer to the collection of defunct objects orbiting the Earth. Examples of debris include non-operational satellites, rocket bodies, and fragments generated from explosions, collisions, or faulty payload assembly.

Loading next visibility...
Identifier
42352, 2000-055QU
Orbit
SSO
Country
Flag of USUS
Related business
Manufacturer
Unknown
Mission
Spacecraft
Bus & Motor
Unknown
Mass
Unknown
Launch date (UTC)
2000-09-21 (25 years ago)
Launch vehicle
Unknown
Launch site
Air Force Western Test Range (AFWTR)
Object type
Payload
Rocket body
Debris
Shape & HBR
Unknown shape, 0.1 m
Radar Cross Section
Small (<0.1 m²)

Expand to show TLE details & history
Last TLE update: 1 day ago

TLE from 1 day ago
0 NOAA 16 DEB
1 42352U 00055QU  25308.17887186  .00164480  00000-0  11973-1 0  9995
2 42352  98.8634 110.5978 0010758 299.9464  60.0688 15.02901665498487
Epoch: 2025-11-04T04:17Z
TLE epoch observation values (Epoch: 2025-11-04T04:17:34.528Z)
Latitude
-0.0001°
Longitude
2.53433°
Altitude
557.258 km
Speed
7.585 km/s
True Right ascension
07h 22m 23s
True Declination
0° 00' 00"
Sunlit
Object was in daylight at epoch
Visualization orbit readout
Latitude
Unknown
Longitude
Unknown
Altitude
Unknown
Speed
Unknown
Apparent Right ascension
Unknown
Apparent Declination
Unknown
Sunlit
N/A
Visualization observer readout
Local Sidereal Time
02:31:55
Azimuth
Unknown
Elevation
Unknown
Doppler factor
Unknown
Orbital elements
Apogee altitude
562.469 km
Perigee altitude
547.552 km
Semi-major axis
6,933.148 km
Eccentricity
0.00108
Inclination
98.8634°
RAAN
110.5978°
Arg. of periapsis
299.9464°
True anomaly
60.17571°
Mean anomaly
60.0688°
Eccentric anomaly
60.12225°
Mean motion
3.75965 °/min
Orbital period
95.75 mins
BSTAR
0.011973
Loading maneuver chart data...
Computing Atmospheric mass density...
Loading historical data...
Loading historical data...
Loading historical data...
Loading historical data...
Loading historical data...
Loading historical data...
Loading historical data...

Documentation

Showing up to 5 results
|